TimeEDT,TemperatureF,Dew PointF,Humidity,Sea Level PressureIn,VisibilityMPH,Wind Direction,Wind SpeedMPH,Gust SpeedMPH,PrecipitationIn,Events,Conditions,WindDirDegrees,DateUTC
12:53 AM,70.0,69.1,97,29.71,9.0,Calm,Calm,-,N/A,,Clear,0,2013-06-28 04:53:00
1:53 AM,72.0,69.1,91,29.70,10.0,SW,4.6,-,N/A,,Clear,220,2013-06-28 05:53:00
2:53 AM,75.9,70.0,82,29.68,10.0,WSW,8.1,-,N/A,,Partly Cloudy,240,2013-06-28 06:53:00
3:53 AM,75.0,70.0,84,29.67,10.0,WSW,10.4,-,N/A,,Clear,240,2013-06-28 07:53:00
4:53 AM,73.9,68.0,82,29.66,10.0,WSW,8.1,-,N/A,,Clear,250,2013-06-28 08:53:00
5:53 AM,73.0,66.9,81,29.67,10.0,WSW,4.6,-,N/A,,Clear,250,2013-06-28 09:53:00
6:53 AM,73.0,66.0,79,29.67,10.0,West,11.5,-,N/A,,Partly Cloudy,270,2013-06-28 10:53:00
7:53 AM,73.9,66.0,76,29.67,10.0,WSW,8.1,-,N/A,,Clear,250,2013-06-28 11:53:00
8:53 AM,77.0,66.0,69,29.67,10.0,West,10.4,-,N/A,,Clear,270,2013-06-28 12:53:00
9:53 AM,79.0,66.9,66,29.66,10.0,WSW,9.2,-,N/A,,Clear,250,2013-06-28 13:53:00
10:53 AM,81.0,68.0,65,29.65,10.0,WSW,10.4,-,N/A,,Clear,240,2013-06-28 14:53:00
11:53 AM,82.9,64.9,54,29.65,10.0,WSW,16.1,20.7,N/A,,Scattered Clouds,250,2013-06-28 15:53:00
12:53 PM,84.0,62.1,47,29.65,10.0,West,13.8,23.0,N/A,,Scattered Clouds,280,2013-06-28 16:53:00
1:53 PM,86.0,62.1,44,29.63,10.0,WNW,10.4,21.9,N/A,,Partly Cloudy,290,2013-06-28 17:53:00
2:53 PM,84.9,59.0,41,29.61,10.0,West,16.1,25.3,N/A,,Scattered Clouds,280,2013-06-28 18:53:00
3:53 PM,84.9,60.1,43,29.60,10.0,West,17.3,24.2,N/A,,Scattered Clouds,280,2013-06-28 19:53:00
4:50 PM,84.2,59.0,42,29.61,10.0,West,19.6,25.3,N/A,,Mostly Cloudy,270,2013-06-28 20:50:00
4:53 PM,84.0,59.0,43,29.59,10.0,West,16.1,25.3,N/A,,Mostly Cloudy,280,2013-06-28 20:53:00
5:53 PM,78.1,57.9,50,29.61,10.0,North,18.4,29.9,N/A,,Mostly Cloudy,350,2013-06-28 21:53:00
6:00 PM,77.0,59.0,54,29.63,10.0,North,17.3,24.2,N/A,,Mostly Cloudy,350,2013-06-28 22:00:00
6:53 PM,66.9,63.0,87,29.65,10.0,Calm,Calm,-,0.07,,Overcast,0,2013-06-28 22:53:00
7:53 PM,66.9,64.9,93,29.64,10.0,Calm,Calm,-,N/A,,Mostly Cloudy,0,2013-06-28 23:53:00
8:53 PM,68.0,66.0,93,29.63,10.0,Calm,Calm,-,0.00,,Mostly Cloudy,0,2013-06-29 00:53:00
9:53 PM,64.9,64.9,100,29.63,10.0,Calm,Calm,-,N/A,,Clear,0,2013-06-29 01:53:00
10:53 PM,63.0,63.0,100,29.63,4.0,South,3.5,-,N/A,,Partly Cloudy,190,2013-06-29 02:53:00
11:53 PM,66.0,64.9,96,29.63,6.0,South,3.5,-,0.01,Rain,Light Rain,190,2013-06-29 03:53:00